Location: Silverdale
(47.6506°N, 122.6941°W)
Time: 10:22:37
(UTC+00:00)

Courier 1B - Pass Details

Date: 05 October 2022
Orbit: 962 x 1209 km, 28.3° (Epoch: 04 December)

Event Time Altitude Azimuth Distance (km) Brightness Sun altitude
Rises 22:04:06 0° 226° (SW) 4,038 11.9 30.6°
Reaches altitude 10° 22:08:25 10° 204° (SSW) 3,032 11.6 30.2°
Maximum altitude 22:12:15 15° 173° (S) 2,638 10.6 29.8°
Drops below altitude 10° 22:16:00 10° 142° (SE) 2,939 10.2 29.4°
Sets 22:20:04 0° 120° (ESE) 3,841 10.5 28.9°
